TimeMST,TemperatureF,Dew PointF,Humidity,Sea Level PressureIn,VisibilityMPH,Wind Direction,Wind SpeedMPH,Gust SpeedMPH,PrecipitationIn,Events,Conditions,WindDirDegrees,DateUTC
12:53 AM,12.0,8.1,84,30.27,10.0,NE,11.5,-,N/A,,Clear,50,2013-02-19 07:53:00
1:38 AM,10.4,6.8,85,30.14,10.0,NE,12.7,-,N/A,,Mostly Cloudy,50,2013-02-19 08:38:00
1:51 AM,10.4,6.8,85,30.14,10.0,NE,12.7,-,N/A,,Partly Cloudy,50,2013-02-19 08:51:00
1:53 AM,10.9,6.1,81,30.26,10.0,NE,11.5,-,N/A,,Partly Cloudy,50,2013-02-19 08:53:00
2:53 AM,10.0,6.1,84,30.25,10.0,NE,12.7,-,N/A,,Clear,50,2013-02-19 09:53:00
3:49 AM,10.4,6.8,85,30.12,10.0,NE,12.7,-,N/A,,Mostly Cloudy,40,2013-02-19 10:49:00
3:53 AM,10.0,5.0,80,30.24,10.0,NE,11.5,-,N/A,,Mostly Cloudy,40,2013-02-19 10:53:00
4:40 AM,8.6,3.2,79,30.10,10.0,NE,13.8,-,N/A,,Scattered Clouds,50,2013-02-19 11:40:00
4:53 AM,8.1,3.0,80,30.22,10.0,NE,12.7,-,N/A,,Clear,50,2013-02-19 11:53:00
5:53 AM,7.0,3.0,84,30.22,10.0,NE,10.4,-,N/A,,Clear,40,2013-02-19 12:53:00
6:53 AM,8.1,3.9,83,30.20,10.0,ENE,9.2,-,N/A,,Clear,60,2013-02-19 13:53:00
7:53 AM,10.9,7.0,84,30.21,10.0,East,5.8,-,N/A,,Clear,100,2013-02-19 14:53:00
8:39 AM,14.0,8.6,79,30.07,10.0,SE,15.0,-,N/A,,Mostly Cloudy,130,2013-02-19 15:39:00
8:53 AM,15.1,9.0,77,30.20,10.0,ESE,10.4,-,N/A,,Overcast,120,2013-02-19 15:53:00
9:53 AM,18.0,12.0,78,30.17,10.0,ESE,13.8,-,N/A,,Scattered Clouds,110,2013-02-19 16:53:00
11:53 AM,26.1,14.0,60,30.10,10.0,SE,17.3,23.0,N/A,,Clear,140,2013-02-19 18:53:00
12:53 PM,26.1,12.9,58,30.07,10.0,ESE,18.4,26.5,N/A,,Clear,120,2013-02-19 19:53:00
1:53 PM,28.0,12.0,51,30.03,10.0,ESE,19.6,25.3,N/A,,Clear,120,2013-02-19 20:53:00
2:53 PM,28.0,10.9,49,30.01,10.0,ESE,15.0,26.5,N/A,,Clear,120,2013-02-19 21:53:00
3:53 PM,28.0,10.9,49,30.01,10.0,SE,18.4,26.5,N/A,,Clear,130,2013-02-19 22:53:00
5:53 PM,25.0,10.9,55,30.01,10.0,ESE,20.7,26.5,N/A,,Clear,120,2013-02-20 00:53:00
6:53 PM,24.1,8.1,51,30.01,10.0,SE,18.4,29.9,N/A,,Clear,130,2013-02-20 01:53:00
7:53 PM,21.9,8.1,55,30.01,10.0,ESE,13.8,20.7,N/A,,Clear,120,2013-02-20 02:53:00
8:53 PM,21.0,7.0,55,30.00,10.0,SE,12.7,-,N/A,,Clear,130,2013-02-20 03:53:00
9:53 PM,19.9,7.0,57,30.00,10.0,ESE,11.5,-,N/A,,Clear,120,2013-02-20 04:53:00
10:53 PM,19.0,5.0,54,29.98,10.0,ESE,15.0,-,N/A,,Clear,120,2013-02-20 05:53:00
11:53 PM,18.0,5.0,57,29.98,10.0,ESE,12.7,-,N/A,,Clear,120,2013-02-20 06:53:00